Notices

What's New in latest Release from April 7th, 2021:

- Updated Glossary, including Speed of Maximum Gust, and Total Hourly Precipitation

- Updated national and regional climate services offices contacts and prices information

- Addition of station inventory lists for 1981-2010, 1971-2000, and 1961-1990 Normals.

If you haven't already, please take our survey and provide feedback about our website: https://eccc.sondage-survey.ca/f/LanguageSelection.aspx?s=442ca660-fcf1-47c0-95a9-59707d6fd709

Hourly Data Report for March 30, 2021

NANAIMO A
BRITISH COLUMBIA
Current Station Operator: NAVCAN

49°03'16.000" N
123°52'12.000" W
28.00 m
1025365
YCD

Download Data

Hourly Data (March 2021)
Hourly Data Report for March 30, 2021
TIME
LST
Temp Definition
°C
Dew Point Definition
°C
Rel Hum Definition
%
Precip. Amount Definition
mm

Wind Dir Definition
10's deg

Wind Spd Definition
km/h
Visibility Definition
km
Stn Press Definition
kPa
Hmdx Definition


Wind Chill Definition


Weather Definition


00:00 3.4 -3.0 63 LegendMM 28 10 LegendMM 102.50     LegendNANA
01:00 2.7 -2.9 67 LegendMM 19 4 LegendMM 102.53     LegendNANA
02:00 3.7 -2.4 65 LegendMM 28 8 LegendMM 102.52     LegendNANA
03:00 1.3 -2.9 73 LegendMM 28 6 LegendMM 102.58     LegendNANA
04:00 0.8 -3.2 75 LegendMM 24 12 LegendMM 102.63     LegendNANA
05:00 0.0 -3.2 80 LegendMM 26 9 LegendMM 102.69   -3 LegendNANA
06:00 -0.4 -3.2 81 LegendMM 24 10 LegendMM 102.72   -4 LegendNANA
07:00 -0.4 -3.3 81 LegendMM 3 4 LegendMM 102.76   -2 LegendNANA
08:00 4.6 -0.6 69 LegendMM 13 3 LegendMM 102.79     LegendNANA
09:00 7.0 -0.6 59 LegendMM 5 5 LegendMM 102.83     LegendNANA
10:00 8.2 0.3 57 LegendMM 1 16 LegendMM 102.86     LegendNANA
11:00 8.1 -0.1 56 LegendMM 3 12 LegendMM 102.87     LegendNANA
12:00 8.9 -0.2 52 LegendMM 11 8 LegendMM 102.87     LegendNANA
13:00 8.2 0.6 59 LegendMM 9 10 LegendMM 102.90     LegendNANA
14:00 10.0 0.5 52 LegendMM 9 10 LegendMM 102.89     LegendNANA
15:00 10.1 0.4 51 LegendMM 4 5 LegendMM 102.88     LegendNANA
16:00 9.6 -0.6 49 LegendMM 7 5 LegendMM 102.90     LegendNANA
17:00 9.6 -0.8 48 LegendMM 0 1 LegendMM 102.90     LegendNANA
18:00 8.2 0.1 56 LegendMM 16 10 LegendMM 102.86     LegendNANA
19:00 6.3 0.3 65 LegendMM 27 2 LegendMM 102.86     LegendNANA
20:00 4.5 1.2 79 LegendMM 23 6 LegendMM 102.90     LegendNANA
21:00 4.5 1.2 79 LegendMM 22 1 LegendMM 102.91     LegendNANA
22:00 4.2 1.1 80 LegendMM 14 2 LegendMM 102.92     LegendNANA
23:00 2.7 0.8 87 LegendMM 30 1 LegendMM 102.92     LegendNANA

Notes on Data Quality.

Legend

  • E = Estimated
  • M = Missing
  • NA = Not Available*
  • [empty] = Indicates an unobserved value
Date modified: